TFFFTNCM

Guest
Details From TFFF - Martinique/Aime Cesaire Intl
To TNCM - St Maarten - Princess Juliana Intl
Flight Number -
Tags generated
Created
Modified
Stats Distance 245 nm / 454 km
Max Altitude 28,900 ft / 8,809 m
Waypoints 4
Social Downloads 2
Likes 0
Share VATSIM

Download

Looking for another format? Having issues loading an existing format? Contact us
Advertisement - Login to hide

Notes

Basic altitude profile: - Ascent Rate: 2500ft/min - Ascent Speed: 250kts - Cruise Altitude: 35000ft - Cruise Speed: 420kts - Descent Rate: 1500ft/min - Descent Speed: 250kts Options: - Use NATs: yes - Use PACOTS: yes - Use low airways: yes - Use high airways: yes

Route

TFFF PPR A517 BIMBO TNCM

ID Type Via Altitude Latitude Longitude Leg Dist Tot Dist Heading (true) Name
O TFFF APT - 0 ft / 0 m 14.59103˚ -61.00317˚ - 0 nm - Martinique/Aime Cesaire Intl
PPR DME - 28,900 ft / 8,809 m 16.26519˚ -61.54014˚ 105 nm 105 nm 343° / 343° POINTE A PITRE VOR-DME
BIMBO FIX A517 (AWY-LO) 22,000 ft / 6,706 m 16.62667˚ -61.96028˚ 32 nm 137 nm 312° / 312° -
O TNCM APT - 0 ft / 0 m 18.04089˚ -63.10897˚ 107 nm 245 nm 322° / 322° St Maarten - Princess Juliana Intl

Altitude Profile

Advertisement - Login to hide

Weather


0- 5 10 15 20 25 30 35+ Temperature / ° C

Clouds and Precipitation
Forecast for 2017-12-12 00:00 UTC. Updated 24 minutes ago

Ground ~20,000 ft ~40,000 ft Winds

TFFF

Details ICAO TFFF (FDF)
Name Martinique/Aime Cesaire Intl
Region France (Guadeloupe, Martinique, Saint Barthélemy, Saint Martin)
Timezone America/Martinique (UTC-4.0)
Stats Elevation 16 ft / 5 m (AMSL)
Location 14.591032° -61.003173°
Runways 1
Magnetic Variation 15.058° W

METAR

TFFF 112330Z AUTO 08003KT CAVOK 24/21 Q1012 NOSIG

Decode

TAF

TAF TAF TFFF 111700Z 1118/1218 12005KT 9999 SCT030 BKN050 BECMG 1120/1122 VRB02KT

Decode

Departure Runways

ID Width Length Bearing (true) Bearing (mag) Surface Threshold Offset Overrun Length
09 148 ft / 45 m 9,852 ft / 3,003 m 79.93° 94.99° Asphalt 0 ft / 0 m 0 ft / 0 m
27 148 ft / 45 m 9,852 ft / 3,003 m 259.94° 275.00° Asphalt 820 ft / 250 m 948 ft / 289 m

TNCM

Details ICAO TNCM (SXM)
Name St Maarten - Princess Juliana Intl
Region Caribbean Netherlands, Aruba, Curaçao, Sint Maarten
Timezone Unknown (UTC+0.0)
Stats Elevation 12 ft / 4 m (AMSL)
Location 18.040889° -63.108974°
Runways 1
Magnetic Variation 14.325° W

METAR

TNCM 112300Z 06007KT 020V090 9999 FEW018 26/21 Q1012 NOSIG RMK A2990

Decode

TAF

Not found

Destination Runways

ID Width Length Bearing (true) Bearing (mag) Surface Threshold Offset Overrun Length
10 148 ft / 45 m 7,464 ft / 2,275 m 81.43° 95.75° Asphalt 0 ft / 0 m 151 ft / 46 m
28 148 ft / 45 m 7,464 ft / 2,275 m 261.44° 275.76° Asphalt 397 ft / 121 m 0 ft / 0 m

Popular Alternatives